SCP
0 0 0 0 0 0 0 0 0 0 0 0 0 0 0 0 0 0 0 0 0 0 0 0 0 0 0 0 0 0 0 0
0 0 0 0 0 0 0 0 0 0 0 0 0 0 0 0 0 0 0 0 0 0 0 0 0 0 0 0 0 0 0 0
0 0 0 0 0 0 0 0 0 0 0 0 0 0 0 0 0 0 0 0 0 0 0 0 0 0 0 0 0 0 0 0
0 0 0 0 0 0 0 0 -0 -0 0 0 0 0 0 0 0 0 0 -0 -0 -0 0 0 0 0 0 0 0 0 0 0
0 0 0 0 0 0 0 0 -0 -0 0 0 0 0 0 0 0 0 0 -0 0 0 0 0 0 0 0 0 0 0 0 0
-0 0 0 0 0 0 0 0 0 0 0 0 0 0 0 0 0 0 0 0 0 0 0 0 0 0 0 0 0 0 0 0
-0 0 0 0 0 0 0 0 0 0 0 0 0 0 0 0 0 0 0 0 0 0 0 0 0 0 0 0 0 0 0 0
-0 0 0 0 0 0 0 0 0 0 -0 0 0 0 0 0 0 0 0 0 0 0 0 0 0 0 0 0 0 0 0 0
0 0 0 0 0 0 0 0 0 0 0 0 0 0 0 0 0 0 0 0 0 0 0 0 0 0 0 0 0 0 0 0
0 0 0 0 0 0 0 0 0 0 0 0 0 0 0 0 0 0 0 0 0 0 0 0 0 0 0 0 0 0 0 0
0 0 0 0 0 0 0 0 0 0 0 0 0 0 0 0 0 0 0 0 0 0 0 0 0 0 0 0 0 0 0 0
0 0 0 0 0 0 0 0 0 0 0 0 0 0 0 0 0 0 0 0 0 0 0 0 -0 0 0 0 0 0 0 0
0 0 0 0 0 0 0 0 0 0 0 0 0 0 0 0 0 0 0 0 0 0 0 -0 -0 0 0 0 0 0 0 0
0 0 0 0 0 0 0 0 0 0 0 0 0 0 0 0 0 0 0 0 0 0 0 -0 -0 0 -0 0 0 0 0 0
0 0 0 0 0 0 0 0 0 0 0 0 0 0 0 0 0 0 0 0 0 0 -0 0 0 0 -0 0 0 0 0 -0
0 0 0 0 0 0 0 0 0 0 0 0 0 0 0 0 0 0 0 0 0 0 0 0 0 0 0 0 0 0 0 -0
0 0 0 0 0 0 0 0 0 0 0 0 0 0 0 0 0 0 0 0 0 0 0 0 0 -0 -0 0 0 0 0 0
0 0 0 0 0 0 0 0 0 0 0 0 0 0 0 0 0 0 0 0 0 0 0 0 0 0 0 -0 -0 -0 0 0
0 0 0 0 0 0 0 0 0 0 0 0 0 0 0 0 0 0 0 0 0 0 0 0 0 -0 -0 -0 0 -0 -0 0
0 0 0 0 0 0 0 0 0 0 0 0 0 0 0 0 0 0 0 0 0 0 0 0 0 0 -0 0 0 -0 -0 0
Wind_Speed_500mb
38 31 22 20 16 11 11 15 23 28 31 35 35 34 37 37 36 35 35 35 34 36 41 43 40 37 29 25 32 32 19 19
37 29 20 14 9 12 15 23 30 36 41 47 51 48 40 36 38 37 31 32 35 38 41 40 44 42 41 35 35 33 27 24
33 27 19 4 10 14 16 26 35 44 54 53 42 29 21 21 22 24 31 39 46 51 52 52 51 49 46 44 43 45 38 24
35 24 12 4 10 11 16 28 40 53 43 34 29 25 20 22 21 30 37 46 54 53 43 35 30 31 34 40 47 46 41 36
27 20 15 15 5 8 18 33 50 54 35 27 29 25 21 20 26 33 42 46 39 36 36 33 32 25 31 32 32 38 48 43
30 30 25 16 2 9 30 35 50 49 44 32 26 26 27 30 34 35 40 31 33 33 32 34 35 31 28 28 29 29 31 40
30 33 21 11 4 17 30 36 42 42 44 28 25 19 26 27 23 31 33 27 30 33 34 31 37 37 31 28 28 30 28 33
37 34 19 10 6 14 30 32 34 39 44 24 21 18 21 24 23 26 24 25 27 30 28 29 37 37 30 28 29 32 40 35
42 31 21 14 12 14 27 31 39 38 45 24 25 27 27 21 17 23 22 25 27 31 29 33 37 38 37 33 29 27 26 30
42 32 25 16 16 20 30 36 34 35 36 27 30 31 27 24 20 22 22 22 25 29 35 37 38 40 40 31 28 25 23 17
37 32 28 23 18 26 34 31 29 36 30 23 27 25 24 23 20 20 20 25 26 29 35 38 38 39 42 31 23 22 21 13
37 29 32 28 21 28 30 27 27 32 26 22 27 27 31 27 25 27 25 25 29 30 33 35 36 32 38 32 23 19 22 21
39 33 32 29 28 26 27 24 29 26 22 19 23 26 31 32 28 26 21 23 29 25 28 28 26 30 32 28 28 21 23 24
32 30 28 31 29 27 26 23 26 20 17 20 26 31 36 37 30 22 22 24 27 21 22 20 20 25 29 30 27 25 23 16
30 32 38 40 31 26 24 26 24 18 16 20 26 31 34 32 26 27 24 25 26 25 17 17 19 19 25 27 28 25 22 17
28 36 35 34 29 24 23 28 28 22 15 18 27 34 32 26 21 25 24 27 28 13 16 15 15 19 22 23 27 22 25 21
40 34 35 36 27 24 23 25 28 21 16 22 25 27 28 18 19 23 23 28 21 11 13 11 16 20 18 18 23 27 16 27
36 35 38 26 29 23 24 24 22 16 17 19 24 24 15 16 21 18 22 16 9 11 7 10 15 20 16 19 18 23 25 23
40 38 34 31 29 30 27 22 24 19 17 19 19 18 10 14 17 19 25 25 23 14 11 10 13 20 18 23 12 16 18 22
31 34 34 37 36 34 27 22 25 18 18 20 14 10 10 13 16 13 13 23 21 26 9 11 10 10 14 18 15 12 8 9
Wind_Direction_500mb
146 141 129 114 86 44 2 347 339 330 325 323 320 318 310 304 308 311 313 316 317 314 310 303 295 287 287 276 273 264 258 278
151 150 134 110 93 8 341 328 328 328 325 321 320 314 305 300 304 312 313 316 317 314 310 306 300 292 276 272 270 260 248 255
139 134 134 98 344 338 321 329 332 329 324 322 321 315 317 327 332 327 322 320 319 315 311 306 298 287 281 266 259 259 258 254
148 151 156 179 288 317 334 337 341 341 335 330 327 325 319 324 325 323 324 323 324 321 325 332 322 301 284 272 263 258 257 257
161 164 167 207 248 348 348 352 355 358 353 335 327 330 320 317 317 324 328 331 333 332 333 339 342 326 308 292 274 265 255 255
177 179 196 197 268 359 348 353 357 356 353 339 322 307 308 312 316 324 331 332 331 332 335 337 336 327 318 300 283 276 274 268
207 199 201 200 21 5 1 348 347 350 357 350 353 334 318 317 322 329 329 336 336 341 336 332 335 329 327 306 278 278 282 280
216 206 209 216 299 344 354 337 338 346 2 353 355 340 327 320 328 337 341 342 340 345 352 352 350 346 329 321 296 277 268 278
212 214 221 227 285 320 338 335 341 346 354 344 341 336 342 339 320 325 334 335 341 351 348 346 342 342 336 322 315 299 276 269
205 209 221 247 288 319 331 328 334 344 352 349 341 334 328 326 321 317 316 326 336 345 349 344 344 342 336 323 301 307 301 289
209 208 228 255 285 316 319 319 324 343 349 352 347 334 326 321 312 314 319 323 329 341 348 342 342 339 341 329 312 292 301 300
215 218 234 261 282 301 310 309 325 342 349 350 353 354 349 336 327 329 325 324 329 337 341 342 343 351 359 355 336 299 292 297
218 222 239 258 266 287 295 302 328 338 340 349 350 350 349 351 340 330 329 329 333 331 336 342 353 357 359 -0 3 341 308 296
242 246 255 252 268 275 286 306 321 321 330 339 346 345 341 343 344 333 325 328 342 329 332 339 356 358 8 5 354 350 344 308
250 230 242 248 256 275 289 296 323 311 322 331 333 328 328 331 335 328 325 334 335 332 335 338 346 359 2 7 360 3 1 359
234 235 244 243 254 282 308 315 319 304 288 320 328 328 326 317 316 321 334 334 330 329 337 343 354 353 355 5 8 21 31 12
224 236 249 243 263 292 304 303 306 284 291 319 325 327 336 336 321 316 323 318 322 326 337 357 355 356 11 19 19 26 11 14
242 243 233 256 276 281 293 291 294 271 293 323 332 340 352 23 16 358 351 355 5 340 337 356 17 17 15 15 20 28 27 24
245 241 246 264 269 276 275 289 294 265 293 315 325 351 15 20 13 27 27 26 17 330 308 342 12 11 21 15 6 18 19 30
266 261 255 263 263 266 269 288 286 255 282 304 306 330 327 338 352 354 12 16 1 351 273 309 326 357 8 20 19 356 10 2
Wind_Speed_850mb
38 31 22 20 16 11 11 15 23 28 31 35 35 34 37 37 36 35 35 35 34 36 41 43 40 37 29 25 32 32 19 19
37 29 20 14 9 12 15 23 30 36 41 47 51 48 40 36 38 37 31 32 35 38 41 40 44 42 41 35 35 33 27 24
33 27 19 4 10 14 16 26 35 44 54 53 42 29 21 21 22 24 31 39 46 51 52 52 51 49 46 44 43 45 38 24
35 24 12 4 10 11 16 28 40 53 43 34 29 25 20 22 21 30 37 46 54 53 43 35 30 31 34 40 47 46 41 36
27 20 15 15 5 8 18 33 50 54 35 27 29 25 21 20 26 33 42 46 39 36 36 33 32 25 31 32 32 38 48 43
30 30 25 16 2 9 30 35 50 49 44 32 26 26 27 30 34 35 40 31 33 33 32 34 35 31 28 28 29 29 31 40
30 33 21 11 4 17 30 36 42 42 44 28 25 19 26 27 23 31 33 27 30 33 34 31 37 37 31 28 28 30 28 33
37 34 19 10 6 14 30 32 34 39 44 24 21 18 21 24 23 26 24 25 27 30 28 29 37 37 30 28 29 32 40 35
42 31 21 14 12 14 27 31 39 38 45 24 25 27 27 21 17 23 22 25 27 31 29 33 37 38 37 33 29 27 26 30
42 32 25 16 16 20 30 36 34 35 36 27 30 31 27 24 20 22 22 22 25 29 35 37 38 40 40 31 28 25 23 17
37 32 28 23 18 26 34 31 29 36 30 23 27 25 24 23 20 20 20 25 26 29 35 38 38 39 42 31 23 22 21 13
37 29 32 28 21 28 30 27 27 32 26 22 27 27 31 27 25 27 25 25 29 30 33 35 36 32 38 32 23 19 22 21
39 33 32 29 28 26 27 24 29 26 22 19 23 26 31 32 28 26 21 23 29 25 28 28 26 30 32 28 28 21 23 24
32 30 28 31 29 27 26 23 26 20 17 20 26 31 36 37 30 22 22 24 27 21 22 20 20 25 29 30 27 25 23 16
30 32 38 40 31 26 24 26 24 18 16 20 26 31 34 32 26 27 24 25 26 25 17 17 19 19 25 27 28 25 22 17
28 36 35 34 29 24 23 28 28 22 15 18 27 34 32 26 21 25 24 27 28 13 16 15 15 19 22 23 27 22 25 21
40 34 35 36 27 24 23 25 28 21 16 22 25 27 28 18 19 23 23 28 21 11 13 11 16 20 18 18 23 27 16 27
36 35 38 26 29 23 24 24 22 16 17 19 24 24 15 16 21 18 22 16 9 11 7 10 15 20 16 19 18 23 25 23
40 38 34 31 29 30 27 22 24 19 17 19 19 18 10 14 17 19 25 25 23 14 11 10 13 20 18 23 12 16 18 22
31 34 34 37 36 34 27 22 25 18 18 20 14 10 10 13 16 13 13 23 21 26 9 11 10 10 14 18 15 12 8 9
Wind_Direction_850mb
146 141 129 114 86 44 2 347 339 330 325 323 320 318 310 304 308 311 313 316 317 314 310 303 295 287 287 276 273 264 258 278
151 150 134 110 93 8 341 328 328 328 325 321 320 314 305 300 304 312 313 316 317 314 310 306 300 292 276 272 270 260 248 255
139 134 134 98 344 338 321 329 332 329 324 322 321 315 317 327 332 327 322 320 319 315 311 306 298 287 281 266 259 259 258 254
148 151 156 179 288 317 334 337 341 341 335 330 327 325 319 324 325 323 324 323 324 321 325 332 322 301 284 272 263 258 257 257
161 164 167 207 248 348 348 352 355 358 353 335 327 330 320 317 317 324 328 331 333 332 333 339 342 326 308 292 274 265 255 255
177 179 196 197 268 359 348 353 357 356 353 339 322 307 308 312 316 324 331 332 331 332 335 337 336 327 318 300 283 276 274 268
207 199 201 200 21 5 1 348 347 350 357 350 353 334 318 317 322 329 329 336 336 341 336 332 335 329 327 306 278 278 282 280
216 206 209 216 299 344 354 337 338 346 2 353 355 340 327 320 328 337 341 342 340 345 352 352 350 346 329 321 296 277 268 278
212 214 221 227 285 320 338 335 341 346 354 344 341 336 342 339 320 325 334 335 341 351 348 346 342 342 336 322 315 299 276 269
205 209 221 247 288 319 331 328 334 344 352 349 341 334 328 326 321 317 316 326 336 345 349 344 344 342 336 323 301 307 301 289
209 208 228 255 285 316 319 319 324 343 349 352 347 334 326 321 312 314 319 323 329 341 348 342 342 339 341 329 312 292 301 300
215 218 234 261 282 301 310 309 325 342 349 350 353 354 349 336 327 329 325 324 329 337 341 342 343 351 359 355 336 299 292 297
218 222 239 258 266 287 295 302 328 338 340 349 350 350 349 351 340 330 329 329 333 331 336 342 353 357 359 -0 3 341 308 296
242 246 255 252 268 275 286 306 321 321 330 339 346 345 341 343 344 333 325 328 342 329 332 339 356 358 8 5 354 350 344 308
250 230 242 248 256 275 289 296 323 311 322 331 333 328 328 331 335 328 325 334 335 332 335 338 346 359 2 7 360 3 1 359
234 235 244 243 254 282 308 315 319 304 288 320 328 328 326 317 316 321 334 334 330 329 337 343 354 353 355 5 8 21 31 12
224 236 249 243 263 292 304 303 306 284 291 319 325 327 336 336 321 316 323 318 322 326 337 357 355 356 11 19 19 26 11 14
242 243 233 256 276 281 293 291 294 271 293 323 332 340 352 23 16 358 351 355 5 340 337 356 17 17 15 15 20 28 27 24
245 241 246 264 269 276 275 289 294 265 293 315 325 351 15 20 13 27 27 26 17 330 308 342 12 11 21 15 6 18 19 30
266 261 255 263 263 266 269 288 286 255 282 304 306 330 327 338 352 354 12 16 1 351 273 309 326 357 8 20 19 356 10 2